TimePST,TemperatureF,Dew PointF,Humidity,Sea Level PressureIn,VisibilityMPH,Wind Direction,Wind SpeedMPH,Gust SpeedMPH,PrecipitationIn,Events,Conditions,WindDirDegrees,DateUTC
12:00 AM,44.1,41.2,90,29.83,-9999.0,SE,23.0,-,N/A,,Unknown,130,2013-01-26 08:00:00
1:00 AM,43.7,40.5,88,29.82,-9999.0,ESE,24.2,-,N/A,,Unknown,120,2013-01-26 09:00:00
3:00 AM,42.8,40.6,92,29.81,-9999.0,ESE,20.7,-,N/A,,Unknown,110,2013-01-26 11:00:00
4:00 AM,43,40,86,29.80,,ESE,26.5,,,,,120,2013-01-26 12:00:00
4:00 AM,43.0,40.3,90,29.80,-9999.0,ESE,26.5,-,N/A,,Unknown,120,2013-01-26 12:00:00
5:00 AM,42.8,40.6,92,29.81,-9999.0,ESE,23.0,-,N/A,,Unknown,120,2013-01-26 13:00:00
6:00 AM,43.3,39.6,87,29.81,-9999.0,SE,23.0,-,N/A,,Unknown,130,2013-01-26 14:00:00
7:00 AM,43.3,39.4,86,29.81,-9999.0,SE,20.7,-,N/A,,Unknown,130,2013-01-26 15:00:00
8:00 AM,42.6,39.0,87,29.84,-9999.0,South,12.7,-,N/A,,Unknown,180,2013-01-26 16:00:00
9:00 AM,41.9,38.1,86,29.86,-9999.0,SSW,6.9,-,N/A,,Unknown,210,2013-01-26 17:00:00
10:00 AM,40,37,87,29.87,,WNW,15.0,,,,,300,2013-01-26 18:00:00
10:00 AM,40.3,37.4,89,29.87,-9999.0,WNW,15.0,-,N/A,,Unknown,300,2013-01-26 18:00:00
11:00 AM,40.1,37.4,90,29.89,-9999.0,NW,13.8,-,N/A,,Unknown,310,2013-01-26 19:00:00
1:00 PM,41.2,37.4,86,29.89,-9999.0,NW,11.5,-,N/A,,Unknown,310,2013-01-26 21:00:00
2:00 PM,40.8,37.4,88,29.89,-9999.0,NW,11.5,-,N/A,,Unknown,320,2013-01-26 22:00:00
3:00 PM,40.6,36.5,85,29.90,-9999.0,NW,10.4,-,N/A,,Unknown,320,2013-01-26 23:00:00
4:00 PM,41,37,79,29.91,,NW,9.2,,,,,320,2013-01-27 00:00:00
4:00 PM,40.6,36.7,86,29.91,-9999.0,NW,9.2,-,N/A,,Unknown,320,2013-01-27 00:00:00
5:00 PM,40.5,36.5,86,29.92,-9999.0,NW,10.4,-,N/A,,Unknown,320,2013-01-27 01:00:00
6:00 PM,40.6,36.1,84,29.94,-9999.0,NNW,11.5,-,N/A,,Unknown,330,2013-01-27 02:00:00
7:00 PM,41.4,37.2,85,29.95,-9999.0,NW,8.1,-,N/A,,Unknown,320,2013-01-27 03:00:00
8:00 PM,41.4,37.4,86,29.96,-9999.0,WNW,4.6,-,N/A,,Unknown,300,2013-01-27 04:00:00
9:00 PM,41.4,37.6,86,29.97,-9999.0,West,9.2,-,N/A,,Unknown,280,2013-01-27 05:00:00
10:00 PM,42,36,74,29.98,,WNW,5.8,,,,,300,2013-01-27 06:00:00
10:00 PM,41.5,36.5,82,29.98,-9999.0,WNW,5.8,-,N/A,,Unknown,300,2013-01-27 06:00:00
11:00 PM,41.7,36.5,82,29.99,-9999.0,NW,5.8,-,N/A,,Unknown,310,2013-01-27 07:00:00